#timestamp,LO_Frequency,Hit,StdDev 
1517839215.8,286047001.7,N
1517839235.7,286047001.4,N
1517839255.5,286047003.3,N
1517839275.4,286047005.5,N
1517839295.2,286047003.5,N
1517839315.0,286047003.4,N
1517839315.9,286047003.4,N
1517839335.8,286047003.3,N
1517839355.6,286047003.5,N
1517839375.4,286047002.6,N
1517839395.3,286047001.3,N
1517839415.1,286047001.6,N
1517839435.9,286046998.4,N
1517839455.7,286046998.6,N
1517839475.5,286047003.3,N
1517839495.4,286047001.5,N
1517839515.2,286047000.6,N
1517839535.0,286046998.2,N
1517839535.9,286046998.2,N
1517839555.8,286047000.4,N
1517839575.6,286047000.7,N
1517839595.5,286047002.7,N
1517839615.3,286047002.8,N
1517839635.1,286047005.3,N
1517839655.9,286047003.8,N
1517839675.7,286047003.0,N
1517839695.5,286047004.4,N
1517839715.4,286047002.2,N
1517839735.2,286047004.1,N
1517839755.1,286047001.4,N
1517839756.0,286047001.4,N
1517839775.8,286047002.0,N
1517839795.6,286047001.8,N
1517839815.5,286047003.8,N
1517839835.3,286047005.9,Y
1517839855.1,286047000.7,P
1517839875.9,286047002.5,P
1517839895.7,286047002.7,P
1517839915.6,286047000.1,N
1517839935.4,286046999.3,N
1517839955.2,286046999.6,N
1517839975.1,286046998.7,N
1517839976.0,286046998.7,N
1517839995.8,286046998.1,N
1517840015.6,286047002.8,N
1517840035.5,286047004.3,N
1517840055.3,286046999.8,N
1517840075.2,286046999.7,N
1517840095.9,286046998.8,N
1517840115.7,286046998.9,N
1517840135.6,286046998.2,N
1517840155.4,286047002.4,N
1517840175.2,286047000.2,N
1517840195.1,286047000.5,N
1517840196.0,286047000.5,N
1517840215.8,286047002.7,N
1517840235.7,286047001.3,N
1517840255.5,286047003.8,N
1517840275.3,286047003.3,N
1517840295.2,286047005.3,N
1517840315.9,286047001.9,N
1517840335.7,286047004.4,N
1517840355.6,286047002.1,N
1517840375.4,286047002.1,N
1517840395.3,286047000.3,N
1517840415.1,286046998.8,N
1517840416.0,286046998.8,N
1517840435.8,286047000.2,N
1517840455.7,286046999.7,N
1517840475.5,286047000.1,N
1517840495.3,286047001.9,N
1517840515.2,286047005.9,N
1517840535.0,286047004.2,N
1517840535.9,286047004.2,N
1517840555.7,286047006.0,N
1517840575.6,286047002.2,N
1517840595.4,286047011.9,Y
1517840615.3,286047000.6,P
1517840635.1,286046999.9,N
1517840655.8,286047002.3,P
1517840675.7,286047000.3,N
1517840695.5,286047000.2,N
1517840715.4,286047002.0,N
1517840735.2,286047004.3,Y
1517840755.0,286047001.6,P
1517840755.9,286047001.6,P
1517840775.8,286047002.0,P
1517840795.6,286046998.5,Y
1517840815.4,286046997.3,P
1517840835.3,286046996.5,N
1517840855.1,286046996.5,N
1517840875.9,286046999.1,N
1517840895.7,286046998.2,N
1517840915.5,286046999.0,N
1517840935.4,286047000.3,N
1517840955.2,286047000.5,N
1517840975.0,286047002.4,N
1517840975.9,286047002.4,N
1517840995.8,286047002.8,N
1517841015.6,286046998.5,N
1517841035.5,286046999.5,N
1517841055.3,286046997.5,N
1517841075.1,286046998.7,N
1517841095.9,286046998.8,N
1517841115.7,286047002.5,N
1517841135.5,286046999.7,N
1517841155.4,286047002.4,N
1517841175.2,286046998.4,N
1517841195.1,286046996.4,N
1517841196.0,286046996.4,N
1517841215.8,286046996.7,N
1517841235.6,286046999.1,N
1517841255.5,286046999.5,N
1517841275.3,286046999.6,N
1517841295.1,286046995.8,N
1517841315.9,286046996.3,N
1517841335.7,286046993.6,Y
1517841355.6,286046996.5,P
1517841375.4,286046994.9,P
1517841395.2,286046996.6,N
1517841415.1,286046999.5,N
1517841416.0,286046999.5,N
1517841435.8,286046999.0,N
1517841455.6,286046995.8,N
1517841475.5,286046995.9,N
1517841495.3,286046999.4,N
1517841515.2,286046999.0,N
1517841535.9,286046998.3,N
1517841555.7,286047000.7,N
1517841575.6,286047001.6,N
1517841595.4,286047001.6,N
1517841615.2,286047002.1,N
1517841635.1,286046998.5,N
1517841636.0,286046998.5,N
1517841655.8,286046995.7,N
1517841675.7,286046995.2,N
1517841695.5,286046996.4,N
1517841715.3,286046997.7,N
1517841735.2,286047000.7,N
1517841755.0,286046998.3,N
1517841755.9,286046998.3,N
1517841775.7,286047000.4,N
1517841795.6,286047002.3,N
1517841815.4,286047000.4,N
1517841835.3,286047000.1,N
1517841855.1,286046996.5,N
1517841856.0,286046996.5,N
1517841875.8,286047000.6,N
1517841895.7,286047002.5,N
1517841915.5,286047001.6,N
1517841935.3,286047001.6,N
1517841955.2,286047000.3,N
1517841975.0,286047000.7,N
1517841975.9,286047000.7,N
1517841995.8,286046998.7,N
1517842015.6,286047000.4,N
1517842035.4,286046998.3,N
1517842055.3,286046998.1,N
1517842075.1,286047001.2,N
1517842095.8,286046998.7,N
1517842115.7,286046999.6,N
1517842135.5,286046998.3,N
1517842155.4,286047000.4,N
1517842175.2,286047002.2,N
1517842195.0,286047001.3,N
1517842195.9,286047001.3,N
1517842215.8,286047001.6,N
1517842235.6,286046999.4,N
1517842255.4,286047001.1,N
1517842275.3,286046999.8,N
1517842295.1,286047001.7,N
1517842315.9,286047003.5,N
1517842335.7,286047004.8,N
1517842355.5,286047004.5,N
1517842375.4,286047005.7,N
1517842395.2,286047005.7,N
1517842415.0,286047007.3,Y
1517842415.9,286047007.3,P
1517842435.8,286047005.9,N
1517842455.6,286047005.4,N
1517842475.5,286047004.4,N
1517842495.3,286047006.9,Y
1517842515.1,286047004.0,P
1517842535.9,286047000.1,N
1517842555.7,286047000.0,N
1517842575.5,286047001.0,N
1517842595.4,286046998.8,N
1517842615.2,286047001.0,N
1517842635.1,286046998.5,N
1517842636.0,286046998.5,N
1517842655.8,286047000.0,N
1517842675.6,286047004.0,N
1517842695.5,286047000.1,N
1517842715.3,286047000.4,N
1517842735.1,286046998.2,N
1517842755.9,286046997.2,N
1517842775.7,286046995.6,N
1517842795.6,286046996.1,N
